Regional Weather Roundup
Issued by NWS

Home | Current Version | Previous Version | Graphics & Text | Print | Product List | Glossary On
Versions: 1 2 3 4 5 6 7 8 9 10 11 12 13 14 15 16 17 18 19 20 21 22 23 24 25 26 27 28 29 30 31 32 33 34 35 36 37 38 39 40 41 42 43 44 45 46 47 48 49 50
000
ASUS43 KMPX 281210
RWRMN
WEATHER ROUNDUP FOR MINNESOTA
NATIONAL WEATHER SERVICE TWIN CITIES/CHANHASSEN MN
700 AM CDT THU MAY 28 2015


NOTE: "FAIR" INDICATES FEW OR NO CLOUDS BELOW 12,000 FEET WITH NO
SIGNIFICANT WEATHER AND/OR OBSTRUCTIONS TO VISIBILITY. N/A MEANS
CURRENT SKY AND/OR WEATHER CONDITIONS ARE NOT AVAILABLE.

MNZ060>063-068>070-281300-
   Twin Cities Metro

CITY           SKY/WX    TMP DP  RH WIND       PRES   REMARKS
TWIN CITIES    MOSUNNY   64  56  75 CALM      30.06R
6HR MIN TEMP:  62; 6HR MAX TEMP:  68;

ST PAUL        SUNNY     62  58  86 SE6       30.07R
CRYSTAL        PTSUNNY   65  56  72 S5        30.04R
BLAINE         MOSUNNY   64  61  88 S5        30.05S
LAKEVILLE      SUNNY     63  55  77 S5        30.07R
EDEN PRAIRIE   SUNNY     64  55  72 S6        30.05R
6HR MIN TEMP:  60; 6HR MAX TEMP:  65;

SOUTH ST PAUL  SUNNY     63  56  77 SE3       30.07R
LAKE ELMO      FAIR      61  57  88 CALM      30.07S
$$
MNZ001>005-007-008-013>017-022>024-027-028-281300-
   Northwest Minnesota

CITY           SKY/WX    TMP DP  RH WIND       PRES   REMARKS
BEMIDJI        CLOUDY    58  53  82 SE8       29.97F
HALLOCK        LGT RAIN  55  54  94 E3        29.96F
ROSEAU         LGT RAIN  54  48  82 W3        30.01R
WARROAD        RAIN      55  52  88 SW3       30.01R
THIEF RVR FALL CLOUDY    57  54  88 N8        29.96F
CROOKSTON      LGT RAIN  59  55  88 NE5       29.95F
FOSSTON        CLOUDY    59  52  77 CALM      29.98R
DETROIT LAKES  CLOUDY    63  54  72 CALM      29.98R
MOORHEAD       CLOUDY    61  57  88 W5        29.98R
PARK RAPIDS    CLOUDY    62  51  67 E6        29.97S
MAHNOMEN       CLOUDY    60  56  85 SE3       29.96S
$$
MNZ006-009>011-018-025>026-281300-
   North Central Minnesota

CITY           SKY/WX    TMP DP  RH WIND       PRES   REMARKS
BAUDETTE       CLOUDY    55  47  74 E5        29.98S
FLAG ISLAND    CLOUDY    57  50  77 E6        29.96F
INTL FALLS     PTSUNNY   51  47  86 SE8       30.02F
6HR MIN TEMP:  49; 6HR MAX TEMP:  54;

WASKISH        CLOUDY    57  52  82 SE5       29.97F
BIG FORK       CLOUDY    55  46  71 SE5       30.03S
LONGVILLE      LGT RAIN  55  48  76 E3        30.01S
GRAND RAPIDS   PTSUNNY   54  43  66 SE8       30.05S
CRANE LAKE     MOSUNNY   48  46  93 CALM      30.08S
ORR            MOSUNNY   54  43  66 SE5       30.03S
COOK           MOSUNNY   54  45  71 E3        30.07S
WALKER         CLOUDY    59  52  78 E5        29.99S
$$
MNZ012-019>021-037-281300-
   Northeast Minnesota

CITY           SKY/WX    TMP DP  RH WIND       PRES   REMARKS
DULUTH         MOSUNNY   46  40  79 E14       30.11S
6HR MIN TEMP:  46; 6HR MAX TEMP:  59;

HIBBING        MOSUNNY   51  44  77 SE7       30.07S
EVELETH        MOSUNNY   52  45  76 E5        30.09S
DULUTH HARBOR  SUNNY     45  41  87 NE21      30.15S
TWO HARBORS    SUNNY     50  43  76 E10G17    30.12S
SILVER BAY     SUNNY     46  41  81 NE7       30.14R
GRAND MARAIS     N/A     47  39  74 E12       30.17R
G MARAIS ARPRT SUNNY     45  37  76 NE7       30.16R
$$
MNZ029>031-032-039>041-046>048-054>057-064-281300-
   West Central Minnesota

CITY           SKY/WX    TMP DP  RH WIND       PRES   REMARKS
FERGUS FALLS   CLOUDY    64  54  68 SE6       29.96R
WHEATON        PTSUNNY   63  54  72 S7        29.97R
MORRIS         MOSUNNY   61  54  77 SE8       29.97S
ALEXANDRIA     PTSUNNY   66  51  58 S8        30.01R
ELBOW LAKE     FAIR      62  54  75 SE8       29.97S
WADENA         PTSUNNY   64  52  63 S8        29.97S
GLENWOOD       MOSUNNY   64  54  68 S7        30.01S
APPLETON       MOSUNNY   66  50  55 S6        29.99R
BENSON         MOSUNNY   63  52  67 S6        29.99S
ORTONVILLE     MOSUNNY   64  52  63 S5        29.97S
MADISON        PTSUNNY   66  52  59 SW10      29.99S
WILLMAR        FAIR      63  55  77 SE5       30.04R
$$
MNZ033>034-036-042>043-049>051-058-059-281300-
   Central Minnesota

CITY           SKY/WX    TMP DP  RH WIND       PRES   REMARKS
ST CLOUD       PTSUNNY   59  57  93 S7        30.03R
6HR MIN TEMP:  52; 6HR MAX TEMP:  59;

SAUK CENTRE    FAIR      61  54  76 S7        30.01S
PAYNESVILLE    MOSUNNY   60  53  78 SE6       30.03R
AITKIN         PTSUNNY   55  48  76 E5        30.02F
PINE RIVER     CLOUDY    57  52  82 SE7       30.04S
BRAINERD       CLOUDY    58  52  80 SE8       30.02R
STAPLES        CLOUDY    61  52  72 SE5       29.99S
LONG PRAIRIE   HAZE      63  52  67 S6        30.01S VSB<1/4
LITTLE FALLS   CLOUDY    61  52  72 SE3       30.01S
LITCHFIELD     MOSUNNY   64  57  77 CALM      30.05R
BUFFALO        MOSUNNY   63  54  72 S3        30.06R
MAPLE LAKE     MOSUNNY   63  57  79 CALM      30.05R
$$
MNZ037-044-045-052-053-281300-
   East Central Minnesota

CITY           SKY/WX    TMP DP  RH WIND       PRES   REMARKS
PRINCETON      MOSUNNY   61  57  88 CALM      30.04S
MORA           MOSUNNY   54  48  82 E6        30.06F
CAMBRIDGE      MOSUNNY   64  54  68 CALM      30.03S
RUSH CITY      SUNNY     56  54  92 NE6       30.06S
MOOSE LAKE     MOSUNNY   46  41  81 NE6       30.07S
HINCKLEY       FAIR      52  50  93 NE5       30.07S
CLOQUET        SUNNY     45  39  81 E13       30.10F
MCGREGOR       MOSUNNY   52  46  82 E6        30.05F
$$
MNZ071>073-080-081-089-090-097-098-281300-
   Southwest Minnesota

CITY           SKY/WX    TMP DP  RH WIND       PRES   REMARKS
MONTEVIDEO     MOSUNNY   63  52  67 SW7       30.01S
GRANITE FALLS  MOSUNNY   59  52  78 CALM      30.03S
CANBY          CLOUDY    67  52  57 SW5       30.01S
MARSHALL       PTSUNNY   64  48  55 SW14      30.02R
REDWOOD FALLS  MOSUNNY   62  52  69 S8        30.03R
OLIVIA         MOSUNNY   59  50  72 S5        30.03R
PIPESTONE      PTSUNNY   64  52  63 S7        30.05R
WINDOM         MOSUNNY   63  52  67 CALM      30.06S
WORTHINGTON    MOSUNNY   63  48  59 S10       30.07R
JACKSON        MOSUNNY   61  52  72 S8        30.08S
TRACY          PTSUNNY   65  52  63 SW10      30.04R
SLAYTON        PTSUNNY   63  50  63 S10       30.06S
$$
MNZ065>067-074>077-082>085-091>093-281300-
   South Central Minnesota

CITY           SKY/WX    TMP DP  RH WIND       PRES   REMARKS
MANKATO        SUNNY     63  54  72 S7        30.07S
NEW ULM        SUNNY     59  54  82 S6        30.05S
ST JAMES       SUNNY     63  55  77 S8        30.07S
FAIRMONT       SUNNY     59  52  77 S8        30.08R
GLENCOE        SUNNY     64  57  78 S3        30.05R
FARIBAULT      SUNNY     63  55  77 S6        30.09R
OWATONNA       SUNNY     64  54  68 S9        30.09R
WASECA         SUNNY     63  54  72 S6        30.10R
ALBERT LEA     SUNNY     63  55  77 S5        30.11R
$$
MNZ078>079-086>088-094>096-281300-
   Southeast Minnesota

CITY           SKY/WX    TMP DP  RH WIND       PRES   REMARKS
ROCHESTER      SUNNY     61  56  83 S8        30.13R
6HR MIN TEMP:  57; 6HR MAX TEMP:  61;

RED WING       SUNNY     63  59  88 CALM      30.08R
STANTON        SUNNY     65  56  72 S3        30.07R
DODGE CENTER   SUNNY     63  57  82 S6        30.11R
WINONA         SUNNY     61  59  94 CALM      30.11S
AUSTIN         SUNNY     57  55  94 S5        30.11S
PRESTON        SUNNY     61  55  82 SW7       30.13S
$$
ABBREVIATIONS USED IN REMARKS
   TC - TEMPERATURES IN CELSIUS
  WCI - WIND CHILL INDEX
   HX - HEAT INDEX
  VSB - VISIBILITY
$$


USA.gov is the U.S. government's official web portal to all federal, state and local government web resources and services.